When you browse on this site, cookies collect data to enhance your experience and personalize the content and advertising you see.
Visit our Privacy Policy to learn more. By continuing to use the site, you agree to this use of cookies and data.
  • Em Portugal
  • Lista de países
  • Para 7 dias
  • Temperatura da água
  • Mapas de satélite
  • Mapa do tempo
  • Widgets de tempo
  • user-avatar
    Iniciar Sessão

    Previsão horária em Cavasaqui

    Hoje, 22 Novembro, Quinta-feira

    Tempo Temperatura Precipitação Vento Pressão Humidade
    00:00 +13°C° 0 mm 1 m/s 758 mmHg 43%
    01:00 +13°C° 0 mm 1 m/s 757 mmHg 45%
    02:00 +13°C° 0 mm 1 m/s 757 mmHg 47%
    03:00 +13°C° 0 mm 1 m/s 756 mmHg 47%
    04:00 +12°C° 0.1 mm 1 m/s 756 mmHg 52%
    05:00 +12°C° 0.1 mm 1 m/s 755 mmHg 56%
    06:00 +12°C° 0.1 mm 2 m/s 755 mmHg 61%
    07:00 +12°C° 0.6 mm 1 m/s 755 mmHg 65%
    08:00 +12°C° 0.6 mm 1 m/s 755 mmHg 70%
    09:00 +13°C° 0 mm 1 m/s 755 mmHg 77%
    10:00 +14°C° 0.3 mm 2 m/s 754 mmHg 76%
    11:00 +14°C° 0.3 mm 2 m/s 754 mmHg 75%
    12:00 +14°C° 0.3 mm 2 m/s 753 mmHg 75%
    13:00 +13°C° 0.1 mm 3 m/s 753 mmHg 72%
    14:00 +14°C° 0.1 mm 3 m/s 753 mmHg 70%
    15:00 +14°C° 0 mm 5 m/s 753 mmHg 70%
    16:00 +13°C° 0.1 mm 5 m/s 754 mmHg 71%
    17:00 +12°C° 0.1 mm 4 m/s 754 mmHg 72%
    18:00 +11°C° 0.1 mm 4 m/s 755 mmHg 73%
    19:00 +10°C° 0 mm 4 m/s 755 mmHg 72%
    20:00 +10°C° 0 mm 4 m/s 756 mmHg 72%
    21:00 +8°C° 0 mm 4 m/s 757 mmHg 71%
    22:00 +9°C° 0 mm 3 m/s 757 mmHg 72%
    23:00 +8°C° 0 mm 3 m/s 758 mmHg 73%

    Amanhã, 23 Novembro, Sexta-feira

    Tempo Temperatura Precipitação Vento Pressão Humidade
    00:00 +8°C° 0 mm 3 m/s 758 mmHg 74%
    01:00 +8°C° 0 mm 3 m/s 758 mmHg 74%
    02:00 +7°C° 0 mm 3 m/s 758 mmHg 74%
    03:00 +7°C° 0 mm 3 m/s 758 mmHg 74%
    04:00 +7°C° 0 mm 3 m/s 759 mmHg 73%
    05:00 +7°C° 0 mm 2 m/s 759 mmHg 73%
    06:00 +7°C° 0 mm 2 m/s 760 mmHg 72%
    07:00 +8°C° 0 mm 2 m/s 760 mmHg 67%
    08:00 +8°C° 0 mm 2 m/s 760 mmHg 63%
    09:00 +9°C° 0 mm 2 m/s 761 mmHg 59%
    10:00 +10°C° 0 mm 3 m/s 760 mmHg 56%
    11:00 +11°C° 0 mm 3 m/s 760 mmHg 53%
    12:00 +11°C° 0 mm 4 m/s 760 mmHg 50%
    13:00 +11°C° 0 mm 4 m/s 760 mmHg 49%
    14:00 +11°C° 0 mm 4 m/s 760 mmHg 49%
    15:00 +11°C° 0 mm 4 m/s 760 mmHg 49%
    16:00 +10°C° 0 mm 3 m/s 760 mmHg 53%
    17:00 +9°C° 0 mm 3 m/s 761 mmHg 57%
    18:00 +8°C° 0 mm 2 m/s 762 mmHg 61%
    19:00 +7°C° 0 mm 2 m/s 762 mmHg 62%
    20:00 +7°C° 0 mm 2 m/s 763 mmHg 64%
    21:00 +7°C° 0 mm 2 m/s 763 mmHg 65%
    22:00 +6°C° 0 mm 2 m/s 763 mmHg 65%
    23:00 +6°C° 0 mm 2 m/s 763 mmHg 65%

    Depois de amanhã, 24 Novembro, Sábado

    Tempo Temperatura Precipitação Vento Pressão Humidade
    00:00 +6°C° 0 mm 2 m/s 763 mmHg 65%
    01:00 +6°C° 0 mm 2 m/s 763 mmHg 64%
    02:00 +6°C° 0 mm 2 m/s 763 mmHg 64%
    03:00 +5°C° 0 mm 2 m/s 763 mmHg 63%
    04:00 +5°C° 0 mm 2 m/s 763 mmHg 61%
    05:00 +5°C° 0 mm 2 m/s 764 mmHg 60%
    06:00 +5°C° 0 mm 2 m/s 764 mmHg 58%
    07:00 +8°C° 0 mm 1 m/s 764 mmHg 53%
    08:00 +9°C° 0 mm 1 m/s 764 mmHg 48%
    09:00 +11°C° 0 mm 1 m/s 764 mmHg 43%
    10:00 +12°C° 0 mm 1 m/s 764 mmHg 40%
    11:00 +14°C° 0 mm 1 m/s 763 mmHg 37%
    12:00 +15°C° 0 mm 1 m/s 763 mmHg 34%
    13:00 +15°C° 0 mm 1 m/s 763 mmHg 35%
    14:00 +15°C° 0 mm 1 m/s 762 mmHg 36%
    15:00 +15°C° 0 mm 1 m/s 762 mmHg 36%
    16:00 +14°C° 0 mm 1 m/s 762 mmHg 41%
    17:00 +12°C° 0 mm 1 m/s 763 mmHg 46%
    18:00 +10°C° 0 mm 0 m/s 763 mmHg 50%
    19:00 +10°C° 0 mm 1 m/s 763 mmHg 53%
    20:00 +10°C° 0 mm 1 m/s 763 mmHg 55%
    21:00 +9°C° 0 mm 1 m/s 763 mmHg 58%
    22:00 +9°C° 0 mm 1 m/s 763 mmHg 58%
    23:00 +9°C° 0 mm 1 m/s 763 mmHg 58%

    25 Novembro, Domingo

    Tempo Temperatura Precipitação Vento Pressão Humidade
    00:00 +8°C° 0 mm 1 m/s 763 mmHg 57%
    01:00 +8°C° 0 mm 1 m/s 763 mmHg 57%
    02:00 +8°C° 0 mm 1 m/s 762 mmHg 56%
    03:00 +8°C° 0 mm 1 m/s 762 mmHg 55%
    04:00 +8°C° 0 mm 1 m/s 762 mmHg 55%
    05:00 +7°C° 0 mm 1 m/s 762 mmHg 55%
    06:00 +7°C° 0 mm 1 m/s 762 mmHg 54%
    07:00 +9°C° 0 mm 1 m/s 763 mmHg 50%
    08:00 +11°C° 0 mm 1 m/s 763 mmHg 46%
    09:00 +12°C° 0 mm 1 m/s 763 mmHg 42%
    10:00 +13°C° 0 mm 1 m/s 762 mmHg 40%
    11:00 +15°C° 0 mm 1 m/s 762 mmHg 38%
    12:00 +16°C° 0 mm 1 m/s 761 mmHg 35%
    13:00 +16°C° 0 mm 1 m/s 761 mmHg 37%
    14:00 +16°C° 0 mm 1 m/s 761 mmHg 38%
    15:00 +16°C° 0 mm 1 m/s 760 mmHg 40%
    16:00 +15°C° 0 mm 1 m/s 761 mmHg 43%
    17:00 +14°C° 0 mm 1 m/s 761 mmHg 47%
    18:00 +13°C° 0 mm 1 m/s 761 mmHg 50%
    19:00 +13°C° 0 mm 1 m/s 761 mmHg 52%
    20:00 +12°C° 0 mm 1 m/s 761 mmHg 54%
    21:00 +12°C° 0 mm 1 m/s 762 mmHg 56%
    22:00 +12°C° 0 mm 1 m/s 761 mmHg 58%
    23:00 +12°C° 0 mm 1 m/s 761 mmHg 60%

    26 Novembro, Segunda-feira

    Tempo Temperatura Precipitação Vento Pressão Humidade
    00:00 +12°C° 0 mm 1 m/s 761 mmHg 62%
    01:00 +12°C° 0 mm 1 m/s 761 mmHg 64%
    02:00 +12°C° 0 mm 1 m/s 761 mmHg 67%
    03:00 +12°C° 0 mm 1 m/s 761 mmHg 69%
    04:00 +11°C° 0 mm 1 m/s 761 mmHg 71%
    05:00 +11°C° 0 mm 1 m/s 762 mmHg 73%
    06:00 +11°C° 0 mm 1 m/s 762 mmHg 75%
    07:00 +12°C° 0 mm 2 m/s 762 mmHg 71%
    08:00 +13°C° 0 mm 2 m/s 762 mmHg 67%
    09:00 +14°C° 0 mm 2 m/s 762 mmHg 64%
    10:00 +16°C° 0 mm 2 m/s 762 mmHg 57%
    11:00 +17°C° 0 mm 2 m/s 762 mmHg 51%
    12:00 +18°C° 0 mm 2 m/s 761 mmHg 45%
    13:00 +18°C° 0 mm 2 m/s 761 mmHg 45%
    14:00 +18°C° 0 mm 2 m/s 761 mmHg 46%
    15:00 +18°C° 0 mm 2 m/s 761 mmHg 46%
    16:00 +16°C° 0 mm 1 m/s 761 mmHg 52%
    17:00 +15°C° 0 mm 1 m/s 762 mmHg 58%
    18:00 +13°C° 0 mm 1 m/s 762 mmHg 63%
    19:00 +13°C° 0 mm 1 m/s 762 mmHg 65%
    20:00 +12°C° 0 mm 1 m/s 762 mmHg 67%
    21:00 +12°C° 0 mm 1 m/s 763 mmHg 69%
    22:00 +12°C° 0 mm 1 m/s 763 mmHg 70%
    23:00 +11°C° 0 mm 1 m/s 763 mmHg 70%

    27 Novembro, Terça-feira

    Tempo Temperatura Precipitação Vento Pressão Humidade
    00:00 +11°C° 0 mm 1 m/s 762 mmHg 70%
    01:00 +11°C° 0 mm 1 m/s 762 mmHg 71%
    02:00 +11°C° 0 mm 1 m/s 762 mmHg 72%
    03:00 +11°C° 0 mm 1 m/s 762 mmHg 72%
    04:00 +10°C° 0 mm 1 m/s 762 mmHg 74%
    05:00 +10°C° 0 mm 1 m/s 762 mmHg 75%
    06:00 +10°C° 0 mm 1 m/s 762 mmHg 76%
    07:00 +12°C° 0 mm 1 m/s 762 mmHg 71%
    08:00 +13°C° 0 mm 1 m/s 762 mmHg 66%
    09:00 +14°C° 0 mm 1 m/s 762 mmHg 62%
    10:00 +16°C° 0 mm 1 m/s 761 mmHg 56%
    11:00 +18°C° 0 mm 1 m/s 760 mmHg 50%
    12:00 +18°C° 0 mm 2 m/s 760 mmHg 44%
    13:00 +18°C° 0 mm 2 m/s 760 mmHg 44%
    14:00 +18°C° 0 mm 2 m/s 759 mmHg 43%
    15:00 +18°C° 0 mm 2 m/s 759 mmHg 43%
    16:00 +17°C° 0 mm 2 m/s 760 mmHg 49%
    17:00 +15°C° 0 mm 2 m/s 760 mmHg 54%
    18:00 +14°C° 0 mm 1 m/s 760 mmHg 59%
    19:00 +13°C° 0 mm 1 m/s 761 mmHg 62%
    20:00 +13°C° 0 mm 1 m/s 761 mmHg 64%
    21:00 +12°C° 0 mm 1 m/s 761 mmHg 66%
    22:00 +12°C° 0 mm 1 m/s 761 mmHg 67%
    23:00 +12°C° 0 mm 1 m/s 761 mmHg 68%
    Mostrar mais